Erwin, NC

2:58 PM EDT on June 22, 2017 (GMT -0400)
Harnett County

Weather History for KHRJ - May, 2013

Change the Weather History Date:

Saturday, May 4, 2013

  Actual Average Record
Temperature  
Mean Temperature 60 °F -  
Max Temperature 69 °F 76 °F 92 °F (1965)
Min Temperature 50 °F 50 °F 37 °F (1986)
Degree Days  
Heating Degree Days 6    
Growing Degree Days 10 (Base 50)    
Moisture  
Dew Point 47 °F    
Average Humidity 68    
Maximum Humidity 81    
Minimum Humidity 48    
Precipitation  
Precipitation 0.00 in - - ()
Sea Level Pressure  
Sea Level Pressure 30.12 in    
Wind  
Wind Speed 12 mph (NE)    
Max Wind Speed 20 mph    
Max Gust Speed 25 mph    
Visibility 10 miles    
Events      
Averages and records for this station are not official NWS values.
T = Trace of Precipitation, MM = Missing Value Source: NWS Daily Summary

Daily Weather History Graph

Daily Weather History Graph

Search for Another Location

Airport or City:

Trip Planner

Search our weather history database for the weather conditions in past years. The results will help you decide how hot, cold, wet, or windy it might be!

Date:

Astronomy

May. 04, 2013 Rise Set
Actual Time 6:20 AM EDT 8:03 PM EDT
Civil Twilight 5:52 AM EDT 8:31 PM EDT
Nautical Twilight 5:19 AM EDT 9:04 PM EDT
Astronomical Twilight 4:44 AM EDT 9:39 PM EDT
Moon 3:06 AM EDT (5/4) 3:10 PM EDT (5/4)
Length of Visible Light 14h 38m
Length of Day
13h 43m
Waning Crescent, 27% of the Moon is Illuminated
May 4
Waning Crescent
May 9
New
May 18
First Quarter
May 25
Full
May 31
Last Quarter

Hourly Weather History & Observations

Time (EDT) Temp. Dew Point Humidity Pressure Visibility Wind Dir Wind Speed Gust Speed Precip Events Conditions
12:15 AM 54.5 °F 42.3 °F 63% 30.19 in 10.0 mi ENE 18.4 mph 23.0 mph N/A   Overcast
12:35 AM 54.5 °F 42.3 °F 63% 30.19 in 10.0 mi NE 12.7 mph 20.7 mph N/A   Overcast
12:55 AM 53.6 °F 42.4 °F 66% 30.19 in 10.0 mi NE 11.5 mph 17.3 mph N/A   Overcast
1:15 AM 52.9 °F 42.8 °F 69% 30.18 in 10.0 mi NE 11.5 mph - N/A   Scattered Clouds
1:35 AM 52.7 °F 43.0 °F 70% 30.18 in 10.0 mi NE 9.2 mph - N/A   Clear
1:55 AM 52.2 °F 43.3 °F 72% 30.17 in 10.0 mi ENE 10.4 mph - N/A   Clear
2:15 AM 51.4 °F 43.5 °F 74% 30.17 in 10.0 mi NNE 8.1 mph - N/A   Clear
2:55 AM 50.9 °F 44.2 °F 78% 30.15 in 10.0 mi NNE 5.8 mph - N/A   Scattered Clouds
3:15 AM 50.5 °F 44.6 °F 80% 30.15 in 10.0 mi NE 8.1 mph - N/A   Scattered Clouds
3:35 AM 51.1 °F 44.8 °F 79% 30.15 in 10.0 mi NNE 6.9 mph - N/A   Overcast
3:55 AM 51.3 °F 45.0 °F 79% 30.15 in 10.0 mi NE 10.4 mph 16.1 mph N/A   Overcast
4:15 AM 51.4 °F 45.0 °F 79% 30.14 in 10.0 mi NE 12.7 mph 17.3 mph N/A   Overcast
4:35 AM 51.6 °F 44.8 °F 77% 30.14 in 10.0 mi NNE 11.5 mph 20.7 mph N/A   Overcast
4:55 AM 51.6 °F 45.0 °F 78% 30.15 in 10.0 mi ENE 11.5 mph - N/A   Overcast
5:15 AM 51.4 °F 45.0 °F 79% 30.14 in 10.0 mi NNE 10.4 mph - N/A   Overcast
5:35 AM 51.4 °F 45.1 °F 79% 30.14 in 10.0 mi NE 11.5 mph - N/A   Overcast
5:55 AM 51.4 °F 45.5 °F 80% 30.15 in 10.0 mi NE 10.4 mph - N/A   Overcast
6:15 AM 51.6 °F 45.5 °F 80% 30.15 in 10.0 mi NNE 9.2 mph - N/A   Overcast
6:35 AM 51.6 °F 45.7 °F 80% 30.15 in 10.0 mi NNE 9.2 mph 16.1 mph N/A   Overcast
6:55 AM 51.8 °F 45.7 °F 80% 30.15 in 10.0 mi NE 10.4 mph 17.3 mph N/A   Overcast
7:15 AM 51.8 °F 45.9 °F 80% 30.16 in 10.0 mi NE 9.2 mph 16.1 mph N/A   Overcast
7:35 AM 52.0 °F 46.0 °F 80% 30.16 in 10.0 mi NE 12.7 mph 16.1 mph N/A   Overcast
7:55 AM 52.2 °F 46.4 °F 81% 30.16 in 10.0 mi NE 10.4 mph - N/A   Overcast
8:15 AM 52.9 °F 46.6 °F 79% 30.16 in 10.0 mi NE 9.2 mph - N/A   Overcast
8:35 AM 53.6 °F 46.4 °F 77% 30.16 in 10.0 mi NE 13.8 mph 17.3 mph N/A   Overcast
8:55 AM 54.5 °F 46.6 °F 75% 30.17 in 10.0 mi North 10.4 mph 17.3 mph N/A   Overcast
9:15 AM 54.7 °F 46.6 °F 74% 30.17 in 10.0 mi NNE 11.5 mph 16.1 mph N/A   Overcast
9:35 AM 55.0 °F 46.4 °F 73% 30.16 in 10.0 mi NE 8.1 mph - N/A   Overcast
9:55 AM 55.4 °F 46.4 °F 72% 30.16 in 10.0 mi NE 12.7 mph 18.4 mph N/A   Overcast
10:15 AM 56.3 °F 46.6 °F 70% 30.16 in 10.0 mi NE 9.2 mph - N/A   Overcast
10:35 AM 57.7 °F 46.6 °F 66% 30.16 in 10.0 mi NE 10.4 mph - N/A   Overcast
10:55 AM 58.1 °F 46.9 °F 66% 30.16 in 10.0 mi NE 13.8 mph 18.4 mph N/A   Overcast
11:15 AM 58.1 °F 46.4 °F 65% 30.16 in 10.0 mi ENE 12.7 mph 16.1 mph N/A   Overcast
11:35 AM 58.6 °F 46.4 °F 64% 30.15 in 10.0 mi NNE 13.8 mph 21.9 mph N/A   Overcast
11:55 AM 59.2 °F 46.6 °F 63% 30.15 in 10.0 mi NNE 11.5 mph 17.3 mph N/A   Overcast
12:15 PM 60.3 °F 46.9 °F 61% 30.13 in 10.0 mi NNE 11.5 mph 17.3 mph N/A   Overcast
12:35 PM 63.5 °F 46.9 °F 55% 30.12 in 10.0 mi NE 15.0 mph 20.7 mph N/A   Overcast
12:55 PM 64.4 °F 46.8 °F 53% 30.12 in 10.0 mi NE 16.1 mph 21.9 mph N/A   Scattered Clouds
1:15 PM 64.0 °F 46.9 °F 54% 30.11 in 10.0 mi ENE 13.8 mph 20.7 mph N/A   Scattered Clouds
1:35 PM 64.8 °F 47.7 °F 54% 30.11 in 10.0 mi NNE 13.8 mph 18.4 mph N/A   Scattered Clouds
1:55 PM 65.5 °F 48.2 °F 54% 30.10 in 10.0 mi NNE 10.4 mph 20.7 mph N/A   Mostly Cloudy
2:15 PM 66.6 °F 48.7 °F 53% 30.10 in 10.0 mi NNE 12.7 mph - N/A   Mostly Cloudy
2:35 PM 66.9 °F 47.8 °F 50% 30.09 in 10.0 mi ENE 15.0 mph 20.7 mph N/A   Mostly Cloudy
2:55 PM 67.6 °F 48.6 °F 50% 30.08 in 10.0 mi NE 16.1 mph 21.9 mph N/A   Mostly Cloudy
3:35 PM 68.7 °F 48.7 °F 49% 30.07 in 10.0 mi NE 19.6 mph 23.0 mph N/A   Mostly Cloudy
3:55 PM 69.3 °F 48.6 °F 48% 30.06 in 10.0 mi ENE 17.3 mph 24.2 mph N/A   Mostly Cloudy
4:15 PM 67.8 °F 48.4 °F 50% 30.06 in 10.0 mi ENE 12.7 mph 18.4 mph N/A   Mostly Cloudy
4:35 PM 67.6 °F 47.8 °F 49% 30.06 in 10.0 mi ENE 15.0 mph 20.7 mph N/A   Overcast
4:55 PM 66.4 °F 48.0 °F 52% 30.07 in 10.0 mi ENE 15.0 mph 20.7 mph N/A   Overcast
5:15 PM 66.0 °F 49.3 °F 55% 30.06 in 10.0 mi NE 10.4 mph 16.1 mph N/A   Overcast
5:35 PM 66.4 °F 48.4 °F 52% 30.06 in 10.0 mi East 13.8 mph 20.7 mph N/A   Overcast
5:55 PM 65.8 °F 49.1 °F 55% 30.06 in 10.0 mi ENE 12.7 mph 20.7 mph N/A   Overcast
6:15 PM 64.9 °F 49.8 °F 58% 30.06 in 10.0 mi ENE 18.4 mph 24.2 mph N/A   Overcast
6:35 PM 63.5 °F 50.0 °F 61% 30.07 in 10.0 mi NE 13.8 mph 20.7 mph N/A   Overcast
6:55 PM 63.0 °F 50.2 °F 63% 30.07 in 10.0 mi ENE 8.1 mph 11.5 mph N/A   Overcast
7:15 PM 61.7 °F 50.0 °F 65% 30.07 in 10.0 mi ENE 12.7 mph 25.3 mph N/A   Overcast
7:35 PM 60.8 °F 50.9 °F 70% 30.08 in 10.0 mi NE 15.0 mph 18.4 mph N/A   Overcast
7:55 PM 60.1 °F 50.9 °F 72% 30.09 in 10.0 mi NE 11.5 mph 18.4 mph N/A   Overcast
8:15 PM 59.9 °F 50.9 °F 72% 30.08 in 10.0 mi NE 10.4 mph 17.3 mph N/A   Overcast
8:35 PM 59.4 °F 51.1 °F 74% 30.09 in 10.0 mi NE 10.4 mph 17.3 mph N/A   Overcast
8:55 PM 59.2 °F 50.9 °F 74% 30.09 in 10.0 mi NE 11.5 mph - N/A   Overcast
9:15 PM 59.2 °F 50.9 °F 74% 30.10 in 10.0 mi NNE 9.2 mph - N/A   Overcast
9:35 PM 59.0 °F 50.7 °F 74% 30.09 in 10.0 mi NE 10.4 mph - N/A   Overcast
9:55 PM 58.8 °F 50.5 °F 74% 30.09 in 10.0 mi NE 11.5 mph 18.4 mph N/A   Overcast
10:15 PM 58.5 °F 50.4 °F 74% 30.10 in 10.0 mi NE 13.8 mph - N/A   Overcast
10:35 PM 58.5 °F 49.3 °F 72% 30.10 in 10.0 mi NE 15.0 mph 19.6 mph N/A   Overcast
10:55 PM 58.6 °F 47.3 °F 66% 30.09 in 10.0 mi ENE 15.0 mph 21.9 mph N/A   Overcast
11:15 PM 58.5 °F 46.9 °F 66% 30.09 in 10.0 mi ENE 17.3 mph 25.3 mph N/A   Overcast
11:35 PM 58.1 °F 47.1 °F 67% 30.08 in 10.0 mi ENE 9.2 mph 21.9 mph N/A   Overcast
11:55 PM 57.6 °F 47.5 °F 69% 30.08 in 10.0 mi NE 12.7 mph 25.3 mph N/A   Overcast